TimeCST,TemperatureF,Dew PointF,Humidity,Sea Level PressureIn,VisibilityMPH,Wind Direction,Wind SpeedMPH,Gust SpeedMPH,PrecipitationIn,Events,Conditions,WindDirDegrees,DateUTC
12:56 AM,57.0,36.0,45,29.43,-9999.0,SW,28.8,43.7,N/A,,Unknown,220,2012-12-03 06:56:00
1:56 AM,57.0,36.0,45,29.40,-9999.0,SW,36.8,50.6,N/A,,Unknown,230,2012-12-03 07:56:00
2:56 AM,55.9,37.0,49,29.38,-9999.0,SW,32.2,44.9,N/A,,Unknown,230,2012-12-03 08:56:00
3:56 AM,55.0,37.9,53,29.35,-9999.0,SW,28.8,38.0,N/A,,Unknown,230,2012-12-03 09:56:00
4:56 AM,53.1,37.9,57,29.35,-9999.0,WSW,25.3,33.4,N/A,,Unknown,240,2012-12-03 10:56:00
5:56 AM,51.1,39.0,63,29.37,-9999.0,WSW,28.8,40.3,N/A,,Unknown,250,2012-12-03 11:56:00
6:56 AM,50.0,37.0,61,29.41,-9999.0,West,17.3,28.8,N/A,,Unknown,260,2012-12-03 12:56:00
7:56 AM,50.0,35.1,57,29.49,-9999.0,NW,23.0,28.8,N/A,,Unknown,320,2012-12-03 13:56:00
8:56 AM,50.0,37.9,63,29.53,-9999.0,NW,19.6,29.9,N/A,,Unknown,320,2012-12-03 14:56:00
9:56 AM,48.9,39.9,71,29.59,-9999.0,NNW,28.8,36.8,N/A,,Unknown,330,2012-12-03 15:56:00
10:56 AM,46.0,39.9,79,29.64,-9999.0,NW,18.4,-,0.01,,Unknown,320,2012-12-03 16:56:00
11:56 AM,48.9,36.0,61,29.65,-9999.0,NW,21.9,26.5,N/A,,Unknown,310,2012-12-03 17:56:00
12:56 PM,52.0,30.9,45,29.64,-9999.0,NNW,24.2,34.5,N/A,,Unknown,330,2012-12-03 18:56:00
1:56 PM,53.1,28.0,38,29.66,-9999.0,NW,27.6,38.0,N/A,,Unknown,310,2012-12-03 19:56:00
2:56 PM,53.1,26.1,35,29.70,-9999.0,NW,21.9,32.2,N/A,,Unknown,320,2012-12-03 20:56:00
3:56 PM,52.0,25.0,35,29.74,-9999.0,NW,20.7,-,N/A,,Unknown,310,2012-12-03 21:56:00
4:56 PM,45.0,25.0,46,29.79,-9999.0,WNW,10.4,-,N/A,,Unknown,290,2012-12-03 22:56:00
5:56 PM,43.0,25.0,49,29.82,-9999.0,West,8.1,-,N/A,,Unknown,280,2012-12-03 23:56:00
6:56 PM,44.1,25.0,47,29.84,-9999.0,West,13.8,-,N/A,,Unknown,270,2012-12-04 00:56:00
7:56 PM,45.0,25.0,46,29.86,-9999.0,West,11.5,-,N/A,,Unknown,280,2012-12-04 01:56:00
8:56 PM,44.1,25.0,47,29.89,-9999.0,NW,15.0,-,N/A,,Unknown,310,2012-12-04 02:56:00
9:56 PM,39.0,25.0,57,29.94,-9999.0,NNW,11.5,-,N/A,,Unknown,330,2012-12-04 03:56:00
10:56 PM,33.1,23.0,66,29.97,-9999.0,NNE,8.1,-,N/A,,Unknown,30,2012-12-04 04:56:00
11:56 PM,33.1,24.1,70,29.99,-9999.0,North,9.2,-,N/A,,Unknown,10,2012-12-04 05:56:00